Regional Weather Roundup
Issued by NWS

Home | Current Version | Previous Version | Text Only | Print | Product List | Glossary On
Versions: 1 2 3 4 5 6 7 8 9 10 11 12 13 14 15 16 17 18 19 20 21 22 23 24 25 26 27 28 29 30 31 32 33 34 35 36 37 38 39 40 41 42 43 44 45 46 47 48 49 50
000
ASUS42 KFFC 180110
RWRGA
WEATHER ROUNDUP FOR GEORGIA
NATIONAL WEATHER SERVICE PEACHTREE CITY GA
900 PM EDT THU AUG 17 2017

NOTE: "FAIR" INDICATES FEW OR NO CLOUDS BELOW 12,000 FEET WITH NO
SIGNIFICANT WEATHER AND/OR OBSTRUCTIONS TO VISIBILITY.

* = USE WITH CAUTION. THE STATIONS MARKED WITH AN ASTERISK MAY NOT
REPORT WEATHER SUCH AS PRECIPITATION, FOG, OR THUNDER AND ARE NOT
QUALITY CONTROLLED BY NWS.

THE REMARK "TC" DENOTES TEMPERATURE READING IN DEGREES CELSIUS.

GAZ001>058-180200-
NORTH GEORGIA

CITY           SKY/WX    TMP DP  RH WIND       PRES   REMARKS
ATLANTA        PTCLDY    83  70  64 W7        30.03R
ATHENS         CLEAR     80  76  87 CALM      30.01R
PEACHTREE CITY CLEAR     79  76  90 CALM      30.03R
ROME           CLEAR     81  75  82 CALM      29.99R
WEST ATLANTA   CLEAR     84  73  69 SW3       30.02R HX  90
GAINESVILLE    CLEAR     80  71  74 W5        30.06R
CARTERSVILLE   CLEAR     79  75  87 CALM      30.02R


CITY           SKY/WX    TMP DP  RH WIND       PRES   REMARKS
LAWRENCEVILLE* CLEAR     82  70  65 SW9       30.04R
MARIETTA       PTCLDY    83  71  67 SW5       30.03R
KENNESAW*      CLEAR     84  72  67 SW7       30.04R
CANTON*        CLEAR     82  75  78 CALM      30.05R
$$

GAZ059>098-102>109-180200-
CENTRAL GEORGIA

CITY           SKY/WX    TMP DP  RH WIND       PRES   REMARKS
AUGUSTA-BUSH   PTCLDY    87  77  72 W5        29.97R HX  99
AUGUSTA-DANIEL CLEAR     88  72  58 VRB3      30.00R HX  94
COLUMBUS       CLEAR     88  72  58 W5        30.00S HX  94
MACON          NOT AVBL
ROBINS AFB     CLEAR     82  76  80 CALM      30.00R


CITY           SKY/WX    TMP DP  RH WIND       PRES   REMARKS
LAGRANGE*      CLEAR     80  79  98 CALM      30.03R
SYLVANIA*      CLOUDY    83  81  93 CALM      30.00R HX  98
MILLEDGEVILLE* CLEAR     81  79  94 CALM      30.00R
$$

GAZ099>101-110>166-180200-
SOUTH GEORGIA

CITY           SKY/WX    TMP DP  RH WIND       PRES   REMARKS
SAVANNAH       PTCLDY    85  78  80 S9        30.01R HX  96
VALDOSTA       MOCLDY    83  76  79 CALM      30.01R HX  91
ALMA           CLOUDY    82  75  79 CALM      30.01R
ST SIMONS      CLOUDY    83  78  85 SW5       30.01R HX  93
FT STEWART     CLEAR     80  74  79 S5        29.98S
ALBANY         CLEAR     86  77  74 CALM      30.03R HX  97
HUNTER AFB     CLEAR     84  79  84 SW10      29.98R HX  96
MOODY AFB      MOCLDY    85  78  78 CALM      30.01R HX  96
BRUNSWICK      CLOUDY    81  73  78 W6        30.03R


CITY           SKY/WX    TMP DP  RH WIND       PRES   REMARKS
BAINBRIDGE*    PTCLDY    86  81  84 CALM      30.01R HX 102
MOULTRIE*      CLEAR     84  77  79 CALM      30.03R HX  94
VIDALIA*       CLOUDY    86  73  66 W5        30.01R HX  93
WAYCROSS*      CLOUDY    79  76  90 CALM      30.02R
DOUGLAS*       CLOUDY    82  73  74 CALM      30.03R
$$




USA.gov is the U.S. government's official web portal to all federal, state and local government web resources and services.